Location: Newark
(54.6833°N, 25.2833°E)
Time: 02:53:11
(UTC+00:00)

A-11 Canister half - Pass Details

Date: 30 January 2021
Orbit: 1525 x 1684 km, 47.3° (Epoch: 05 March)

Event Time Altitude Azimuth Distance (km) Brightness Sun altitude
Rises 16:28:56 0° 279° (W) 4,711 13.0 -13.7°
Reaches altitude 10° 16:32:11 10° 272° (W) 3,743 12.4 -14.2°
Maximum altitude 16:40:42 40° 208° (SSW) 2,209 10.1 -15.4°
Drops below altitude 10° 16:49:28 10° 144° (SE) 3,846 10.8 -16.6°
Sets 16:52:52 0° 137° (SE) 4,852 11.3 -17.1°
